This demonstration page uses our WeatherBlox Daily Observations layout. Learn more.

Left ArrowRight Arrow

Hourly Observations for April 15, 2019

Temp ( °F °C ) Dew Point ( °F °C ) Humidity (%) Winds ( mph kmh ) Pressure ( in mb ) Visibility ( mi km ) Precip ( " mm )
12:11 am 00:11 Cloudy 54 12.2 47 8.3 77 77 W 10 17 29.84 1011 10 16 0.00 0.00
12:46 am 00:46 Cloudy with Light Rain 51 10.6 47 8.3 86 86 WNW 17 28 29.88 1012 9 14 0.01 0.25
12:53 am 00:53 Cloudy with Light Rain 50 10 46 7.8 86 86 WNW 12 19 29.86 1011 10 16 0.01 0.25
1:53 am 01:53 Cloudy 51 10.6 45 7.2 80 80 W 14 22 29.86 1011 10 16 0.00 0.03
2:14 am 02:14 Cloudy 51 10.6 45 7.2 80 80 W 13 20 29.89 1012 10 16 0.00 0.00
2:53 am 02:53 Cloudy 50 10 42 5.6 74 74 WNW 10 17 29.86 1011 10 16 0.00 0.00
3:23 am 03:23 Cloudy 50 10 42 5.6 74 74 WNW 14 22 29.88 1012 10 16 0.00 0.00
3:53 am 03:53 Cloudy 50 10 42 5.6 74 74 NW 12 19 29.86 1011 10 16 0.00 0.00
4:53 am 04:53 Cloudy 49 9.4 41 5 74 74 WNW 10 17 29.90 1013 10 16 0.00 0.00
5:19 am 05:19 Cloudy 48 8.9 38 3.3 68 68 WNW 15 24 29.94 1014 10 16 0.00 0.00
5:53 am 05:53 Mostly Clear 46 7.8 36 2.2 68 68 WNW 10 17 29.93 1014 10 16 0.00 0.00
6:53 am 06:53 Clear 45 7.2 37 2.8 74 74 WNW 8 13 29.97 1015 10 16 0.00 0.00
7:53 am 07:53 Sunny 45 7.2 37 2.8 74 74 WNW 6 9 30.02 1017 10 16 0.00 0.00
8:53 am 08:53 Sunny 47 8.3 37 2.8 69 69 WNW 9 15 30.06 1018 10 16 0.00 0.00
9:53 am 09:53 Sunny 50 10 37 2.8 61 61 NW 10 17 30.07 1018 10 16 0.00 0.00
10:53 am 10:53 Sunny 53 11.7 36 2.2 52 52 NW 13 20 30.08 1019 10 16 0.00 0.00
11:53 am 11:53 Sunny 55 12.8 36 2.2 49 49 WNW 18 30 30.10 1019 10 16 0.00 0.00
12:53 pm 12:53 Sunny 58 14.4 36 2.2 44 44 NNW 14 22 30.09 1019 10 16 0.00 0.00
1:53 pm 13:53 Sunny 61 16.1 37 2.8 41 41 NW 14 22 30.08 1019 10 16 0.00 0.00
2:53 pm 14:53 Sunny 63 17.2 38 3.3 40 40 W 12 19 30.07 1018 10 16 0.00 0.00
3:53 pm 15:53 Sunny 65 18.3 35 1.7 33 33 NNW 15 24 30.06 1018 10 16 0.00 0.00
4:53 pm 16:53 Sunny 65 18.3 36 2.2 34 34 NW 17 28 30.06 1018 10 16 0.00 0.00
5:53 pm 17:53 Sunny 66 18.9 35 1.7 32 32 NW 13 20 30.07 1018 10 16 0.00 0.00
6:53 pm 18:53 Sunny 65 18.3 33 0.6 31 31 NW 12 19 30.08 1019 10 16 0.00 0.00
7:53 pm 19:53 Sunny 63 17.2 34 1.1 34 34 NNW 5 7 30.10 1019 10 16 0.00 0.00
8:53 pm 20:53 Clear 56 13.3 39 3.9 53 53 WNW 3 6 30.11 1020 10 16 0.00 0.00
9:53 pm 21:53 Clear 54 12.2 41 5 62 62 Calm 30.14 1021 10 16 0.00 0.00
10:53 pm 22:53 Clear 53 11.7 42 5.6 66 66 Calm 30.16 1021 10 16 0.00 0.00
11:53 pm 23:53 Clear 50 10 42 5.6 74 74 Calm 30.16 1021 10 16 0.00 0.00

Powered by AerisWeather